Hagerstown Regional Richard A Henson Field
KHGR : now visible

Airfield :











YOU CAN JOIN US ON...

 
LOGIN :

Register | Disclaimer

   EN    FR    IT 

 









Legend :    VFR   Marginal VFR   IFR   Intensive IFR   Very Intensive IFR
Visi :
Ceiling :
>= 8 km
>= 3000ft
5 to 8 km
1000 to 3000 ft
1500m to 5 km
500 to 1000 ft
800 to 1500m
200 to 500 ft
< 800m
< 200 ft
Symbols :   Thunderstorms  Fog  Heavy snow  Heavy precipitations  Wind > 20 kt






- Airport Elevation : 703 ft
- IATA code : HGR


KHGR - Hagerstown Regional Richard A Henson Field

CURRENT METAR :
  • 011453Z 34009KT 10SM CLR M02/M12 A3033 RMK AO2 SLP290 T10171117 53027 $

EXPIRED METARs :
  • 011353Z 33012KT 10SM CLR M02/M11 A3030 RMK AO2 SLP279 T10221111 $
  • 011253Z 32008KT 10SM CLR M03/M12 A3028 RMK AO2 SLP272 T10331117 $
  • 011153Z 33011KT 10SM CLR M03/M12 A3025 RMK AO2 SLP262 60000 T10281122 11006 21028 53019 $

TAF N/A
KZDC FIR / North America



MET'MAP, your aeronautical weather chart ! - Copyright ORBIFLY December 2007 - Disclaimer

ORBIFLY MET'MAP TEAM :

Programming & Development : Alexandra Zaïnal
Original concept : Baudouin d'Aumeries
Technical & hardware support : Manuel Goepfert
Assistance : Marc-Olivier Méhu




SOURCES & CREDITS :

   NOAA       Earth
Advisory